QPF
0.00 0.02 0.08 0.13 0.12 0.08 0.03 0.02 0.01 0.01 0.01 0.02 0.02 0.03 0.04 0.04 0.04 0.04 0.05 0.04 0.04 0.05 0.05 0.04 0.03 0.03 0.06 0.06 0.05 0.06 0.07 0.06 0.06 0.08 0.08 0.05 0.03 0.03 0.04 0.05 0.06 0.07 0.07 0.05 0.06 0.06 0.08 0.11 0.16
0.02 0.07 0.11 0.13 0.10 0.02 0.02 0.01 0.01 0.01 0.02 0.02 0.02 0.03 0.03 0.04 0.05 0.05 0.05 0.04 0.03 0.04 0.05 0.04 0.03 0.03 0.05 0.06 0.07 0.06 0.06 0.06 0.07 0.07 0.08 0.06 0.05 0.05 0.05 0.07 0.07 0.06 0.06 0.05 0.05 0.05 0.08 0.12 0.16
0.05 0.09 0.11 0.14 0.06 0.00 0.01 0.01 0.01 0.01 0.01 0.02 0.01 0.01 0.02 0.04 0.05 0.06 0.05 0.04 0.02 0.02 0.03 0.04 0.04 0.03 0.05 0.07 0.07 0.06 0.05 0.05 0.07 0.07 0.07 0.07 0.07 0.06 0.06 0.08 0.08 0.08 0.07 0.07 0.06 0.05 0.05 0.06 0.08
0.08 0.10 0.09 0.08 0.02 0.00 0.00 0.00 0.00 0.01 0.01 0.01 0.00 0.00 0.02 0.02 0.03 0.03 0.04 0.03 0.02 0.02 0.03 0.04 0.04 0.03 0.05 0.07 0.06 0.05 0.04 0.05 0.05 0.05 0.06 0.08 0.09 0.08 0.09 0.10 0.09 0.08 0.08 0.07 0.06 0.05 0.03 0.03 0.04
0.07 0.10 0.07 0.02 0.01 0.00 0.00 0.00 0.00 0.00 0.00 0.00 0.00 0.01 0.02 0.02 0.02 0.01 0.02 0.02 0.02 0.02 0.03 0.04 0.04 0.04 0.06 0.06 0.05 0.05 0.05 0.05 0.05 0.06 0.07 0.07 0.07 0.06 0.07 0.08 0.06 0.05 0.05 0.05 0.05 0.05 0.03 0.02 0.03
0.06 0.06 0.04 0.01 0.00 0.00 0.00 0.00 0.00 0.00 0.00 0.00 0.00 0.01 0.03 0.03 0.02 0.01 0.01 0.02 0.02 0.03 0.03 0.06 0.06 0.05 0.07 0.07 0.06 0.06 0.06 0.06 0.07 0.07 0.08 0.06 0.06 0.06 0.07 0.07 0.05 0.04 0.04 0.03 0.04 0.03 0.03 0.02 0.02
0.06 0.10 0.06 0.01 0.01 0.00 0.00 0.00 0.00 0.00 0.00 0.00 0.00 0.01 0.03 0.03 0.01 0.01 0.01 0.02 0.02 0.02 0.02 0.05 0.05 0.06 0.09 0.07 0.06 0.07 0.07 0.07 0.09 0.08 0.08 0.06 0.07 0.08 0.09 0.08 0.05 0.04 0.04 0.03 0.03 0.03 0.03 0.02 0.03
0.07 0.06 0.03 0.01 0.01 0.00 0.00 0.00 0.00 0.00 0.00 0.00 0.00 0.01 0.02 0.03 0.01 0.01 0.01 0.01 0.01 0.02 0.03 0.05 0.05 0.05 0.06 0.07 0.06 0.06 0.04 0.05 0.08 0.10 0.08 0.07 0.07 0.08 0.09 0.08 0.07 0.05 0.04 0.03 0.03 0.03 0.03 0.02 0.03
0.03 0.03 0.01 0.01 0.01 0.01 0.00 0.00 0.00 0.00 0.00 0.00 0.00 0.00 0.01 0.02 0.01 0.01 0.01 0.01 0.01 0.01 0.02 0.03 0.04 0.05 0.04 0.05 0.05 0.05 0.04 0.03 0.05 0.10 0.10 0.08 0.05 0.05 0.06 0.07 0.07 0.05 0.04 0.03 0.03 0.03 0.03 0.02 0.02
0.01 0.01 0.01 0.01 0.01 0.00 0.01 0.00 0.00 0.00 0.00 0.00 0.00 0.00 0.01 0.00 0.00 0.00 0.00 0.00 0.00 0.00 0.01 0.03 0.04 0.03 0.02 0.03 0.05 0.06 0.04 0.03 0.03 0.05 0.07 0.06 0.05 0.04 0.04 0.05 0.07 0.07 0.06 0.04 0.04 0.04 0.03 0.02 0.01
0.00 0.00 0.00 0.01 0.01 0.00 0.00 0.00 0.00 0.01 0.00 0.00 0.00 0.00 0.00 0.00 0.00 0.00 0.00 0.00 0.00 0.00 0.01 0.01 0.01 0.01 0.01 0.03 0.04 0.04 0.04 0.03 0.03 0.03 0.04 0.05 0.04 0.03 0.03 0.04 0.06 0.06 0.05 0.04 0.04 0.04 0.03 0.02 0.01
0.00 0.00 0.00 0.01 0.01 0.01 0.00 0.00 0.00 0.01 0.00 0.00 0.00 0.00 0.00 0.00 0.00 0.00 0.00 0.00 0.00 0.00 0.01 0.01 0.01 0.01 0.02 0.02 0.03 0.03 0.02 0.02 0.03 0.02 0.02 0.03 0.04 0.03 0.02 0.03 0.05 0.05 0.04 0.04 0.03 0.02 0.03 0.04 0.04
0.01 0.00 0.01 0.01 0.01 0.01 0.00 0.00 0.00 0.00 0.00 0.00 0.00 0.00 0.00 0.00 0.00 0.00 0.00 0.00 0.00 0.00 0.00 0.01 0.01 0.01 0.01 0.01 0.02 0.02 0.02 0.02 0.02 0.03 0.02 0.02 0.03 0.03 0.03 0.03 0.04 0.05 0.03 0.03 0.03 0.02 0.03 0.05 0.05
0.00 0.01 0.01 0.01 0.01 0.01 0.01 0.01 0.01 0.00 0.00 0.00 0.00 0.00 0.00 0.00 0.00 0.00 0.00 0.00 0.00 0.00 0.00 0.00 0.01 0.01 0.00 0.01 0.01 0.02 0.02 0.03 0.04 0.04 0.06 0.05 0.03 0.03 0.04 0.06 0.07 0.06 0.04 0.02 0.03 0.04 0.04 0.04 0.03
0.01 0.01 0.01 0.01 0.03 0.01 0.01 0.02 0.02 0.01 0.01 0.02 0.01 0.00 0.00 0.00 0.00 0.00 0.00 0.00 0.01 0.00 0.00 0.00 0.01 0.01 0.01 0.01 0.01 0.01 0.02 0.04 0.07 0.05 0.05 0.07 0.05 0.05 0.05 0.06 0.07 0.07 0.05 0.04 0.05 0.06 0.06 0.05 0.04
0.00 0.01 0.01 0.02 0.04 0.03 0.01 0.02 0.01 0.01 0.01 0.03 0.02 0.00 0.00 0.00 0.00 0.00 0.00 0.00 0.01 0.01 0.00 0.00 0.00 0.01 0.01 0.01 0.01 0.02 0.03 0.03 0.03 0.03 0.04 0.05 0.05 0.06 0.04 0.05 0.05 0.04 0.04 0.05 0.06 0.07 0.07 0.06 0.05
0.00 0.01 0.01 0.02 0.03 0.03 0.03 0.02 0.01 0.01 0.01 0.01 0.02 0.01 0.01 0.00 0.00 0.00 0.00 0.00 0.01 0.01 0.00 0.00 0.00 0.01 0.01 0.01 0.01 0.02 0.03 0.03 0.02 0.03 0.03 0.04 0.04 0.05 0.05 0.05 0.03 0.04 0.04 0.06 0.07 0.07 0.06 0.05 0.04
0.00 0.00 0.01 0.01 0.02 0.01 0.03 0.03 0.02 0.02 0.01 0.01 0.01 0.01 0.01 0.00 0.00 0.00 0.00 0.00 0.00 0.01 0.00 0.00 0.00 0.01 0.01 0.01 0.01 0.01 0.03 0.03 0.03 0.02 0.02 0.02 0.03 0.03 0.04 0.04 0.04 0.04 0.06 0.07 0.07 0.07 0.05 0.04 0.05
0.01 0.01 0.00 0.01 0.01 0.02 0.03 0.02 0.02 0.02 0.01 0.01 0.02 0.01 0.01 0.01 0.00 0.00 0.00 0.00 0.00 0.01 0.00 0.00 0.00 0.00 0.00 0.00 0.00 0.00 0.01 0.02 0.03 0.03 0.02 0.03 0.03 0.03 0.04 0.04 0.06 0.06 0.06 0.08 0.07 0.06 0.04 0.04 0.04
0.01 0.01 0.01 0.01 0.01 0.01 0.03 0.02 0.02 0.02 0.02 0.02 0.02 0.02 0.01 0.01 0.01 0.00 0.00 0.00 0.00 0.00 0.00 0.00 0.00 0.01 0.00 0.00 0.00 0.00 0.01 0.01 0.02 0.02 0.02 0.02 0.03 0.04 0.05 0.05 0.06 0.06 0.06 0.07 0.06 0.04 0.04 0.03 0.04
0.00 0.01 0.01 0.01 0.01 0.03 0.05 0.03 0.04 0.03 0.02 0.02 0.02 0.02 0.01 0.01 0.01 0.00 0.00 0.01 0.00 0.00 0.00 0.01 0.01 0.00 0.00 0.00 0.00 0.00 0.01 0.03 0.02 0.02 0.01 0.02 0.03 0.03 0.04 0.05 0.05 0.06 0.05 0.04 0.05 0.04 0.04 0.04 0.05
0.00 0.01 0.01 0.01 0.01 0.03 0.04 0.06 0.09 0.08 0.04 0.03 0.03 0.03 0.02 0.01 0.01 0.00 0.00 0.00 0.00 0.00 0.01 0.01 0.00 0.00 0.00 0.00 0.00 0.00 0.00 0.01 0.01 0.01 0.01 0.01 0.02 0.03 0.03 0.04 0.04 0.05 0.05 0.04 0.05 0.05 0.05 0.05 0.05
0.00 0.00 0.01 0.01 0.01 0.01 0.02 0.03 0.09 0.07 0.03 0.04 0.05 0.06 0.04 0.02 0.01 0.00 0.01 0.01 0.01 0.00 0.00 0.00 0.00 0.00 0.00 0.00 0.00 0.00 0.01 0.01 0.01 0.01 0.01 0.02 0.02 0.02 0.03 0.04 0.05 0.03 0.04 0.03 0.04 0.04 0.05 0.04 0.04
0.01 0.01 0.01 0.01 0.01 0.01 0.02 0.03 0.01 0.02 0.03 0.03 0.04 0.03 0.02 0.01 0.01 0.01 0.01 0.02 0.01 0.00 0.01 0.00 0.00 0.00 0.00 0.00 0.00 0.00 0.01 0.02 0.01 0.01 0.01 0.01 0.01 0.01 0.01 0.02 0.03 0.02 0.01 0.02 0.03 0.04 0.04 0.03 0.03
0.01 0.01 0.02 0.02 0.02 0.01 0.01 0.04 0.02 0.01 0.02 0.02 0.02 0.02 0.03 0.02 0.02 0.01 0.01 0.01 0.01 0.01 0.01 0.00 0.00 0.00 0.01 0.01 0.01 0.01 0.02 0.03 0.02 0.02 0.02 0.01 0.01 0.00 0.01 0.01 0.01 0.01 0.01 0.01 0.03 0.04 0.03 0.02 0.02
0.00 0.01 0.02 0.02 0.02 0.01 0.02 0.04 0.02 0.01 0.01 0.01 0.01 0.02 0.03 0.03 0.03 0.03 0.02 0.01 0.02 0.02 0.01 0.00 0.01 0.01 0.01 0.02 0.02 0.03 0.02 0.02 0.03 0.02 0.02 0.01 0.01 0.01 0.01 0.00 0.01 0.01 0.01 0.01 0.02 0.02 0.02 0.02 0.02
0.00 0.01 0.00 0.01 0.01 0.01 0.03 0.03 0.03 0.02 0.02 0.02 0.02 0.03 0.04 0.05 0.04 0.04 0.02 0.02 0.01 0.01 0.01 0.01 0.02 0.02 0.02 0.02 0.02 0.02 0.02 0.03 0.03 0.02 0.02 0.01 0.01 0.01 0.01 0.01 0.01 0.01 0.02 0.02 0.03 0.02 0.02 0.02 0.02
0.00 0.00 0.00 0.00 0.02 0.02 0.03 0.02 0.03 0.02 0.03 0.05 0.05 0.05 0.05 0.06 0.07 0.06 0.05 0.03 0.02 0.02 0.02 0.02 0.03 0.03 0.03 0.02 0.02 0.02 0.02 0.02 0.02 0.02 0.03 0.04 0.03 0.02 0.02 0.01 0.01 0.02 0.02 0.03 0.03 0.02 0.02 0.03 0.02
0.00 0.00 0.00 0.00 0.01 0.02 0.02 0.02 0.01 0.02 0.03 0.06 0.09 0.09 0.08 0.11 0.12 0.07 0.07 0.06 0.04 0.03 0.03 0.04 0.04 0.05 0.06 0.06 0.05 0.04 0.04 0.03 0.03 0.03 0.03 0.03 0.03 0.02 0.02 0.01 0.02 0.02 0.02 0.02 0.03 0.03 0.04 0.03 0.02
0.00 0.00 0.00 0.01 0.01 0.00 0.02 0.03 0.01 0.01 0.05 0.09 0.08 0.10 0.17 0.19 0.14 0.09 0.08 0.08 0.08 0.07 0.06 0.07 0.08 0.08 0.06 0.06 0.06 0.05 0.09 0.12 0.11 0.09 0.05 0.03 0.02 0.02 0.01 0.02 0.03 0.02 0.03 0.03 0.03 0.03 0.03 0.03 0.02
MSLP
1004.97 1006.13 1007.43 1008.70 1009.77 1010.54 1010.92 1010.95 1010.71 1010.34 1010.02 1009.89 1010.02 1010.42 1011.01 1011.65 1012.19 1012.50 1012.51 1012.21 1011.69 1011.06 1010.48 1010.05 1009.88 1009.96 1010.25 1010.67 1011.13 1011.53 1011.85 1012.06 1012.21 1012.33 1012.49 1012.70 1012.98 1013.30 1013.63 1013.94 1014.19 1014.39 1014.54 1014.67 1014.81 1014.97 1015.16 1015.39 1015.62
1005.43 1006.73 1008.08 1009.33 1010.33 1010.95 1011.18 1011.04 1010.64 1010.14 1009.71 1009.50 1009.57 1009.92 1010.47 1011.10 1011.65 1012.00 1012.07 1011.88 1011.49 1011.00 1010.55 1010.25 1010.17 1010.31 1010.62 1011.04 1011.48 1011.87 1012.17 1012.38 1012.53 1012.66 1012.82 1013.03 1013.28 1013.58 1013.87 1014.15 1014.37 1014.55 1014.70 1014.83 1014.98 1015.15 1015.36 1015.59 1015.82
1006.01 1007.38 1008.73 1009.91 1010.79 1011.26 1011.33 1011.04 1010.53 1009.95 1009.47 1009.22 1009.25 1009.56 1010.08 1010.67 1011.20 1011.56 1011.68 1011.57 1011.29 1010.94 1010.62 1010.43 1010.43 1010.62 1010.96 1011.37 1011.79 1012.16 1012.45 1012.67 1012.82 1012.97 1013.13 1013.33 1013.57 1013.83 1014.09 1014.32 1014.52 1014.68 1014.82 1014.95 1015.11 1015.30 1015.52 1015.76 1016.00
1006.58 1007.97 1009.27 1010.35 1011.08 1011.41 1011.34 1010.97 1010.40 1009.81 1009.34 1009.09 1009.12 1009.42 1009.89 1010.43 1010.92 1011.26 1011.40 1011.35 1011.16 1010.92 1010.72 1010.63 1010.70 1010.93 1011.27 1011.67 1012.06 1012.41 1012.70 1012.91 1013.09 1013.25 1013.43 1013.63 1013.86 1014.09 1014.32 1014.52 1014.68 1014.83 1014.96 1015.11 1015.28 1015.48 1015.71 1015.95 1016.18
1007.06 1008.41 1009.60 1010.54 1011.12 1011.33 1011.19 1010.78 1010.25 1009.71 1009.31 1009.13 1009.20 1009.49 1009.93 1010.41 1010.84 1011.14 1011.28 1011.26 1011.14 1010.99 1010.89 1010.88 1011.01 1011.25 1011.58 1011.95 1012.31 1012.64 1012.91 1013.13 1013.33 1013.52 1013.72 1013.93 1014.16 1014.38 1014.58 1014.75 1014.90 1015.04 1015.17 1015.33 1015.51 1015.72 1015.95 1016.18 1016.39
1007.36 1008.60 1009.65 1010.42 1010.87 1010.99 1010.83 1010.47 1010.03 1009.63 1009.37 1009.30 1009.43 1009.74 1010.14 1010.57 1010.94 1011.19 1011.31 1011.32 1011.25 1011.17 1011.14 1011.19 1011.35 1011.59 1011.90 1012.23 1012.55 1012.84 1013.10 1013.34 1013.56 1013.78 1014.02 1014.25 1014.48 1014.70 1014.89 1015.04 1015.18 1015.31 1015.45 1015.62 1015.81 1016.02 1016.24 1016.45 1016.63
1007.43 1008.50 1009.38 1009.99 1010.33 1010.41 1010.28 1010.03 1009.75 1009.54 1009.45 1009.52 1009.74 1010.07 1010.46 1010.83 1011.14 1011.35 1011.45 1011.47 1011.45 1011.43 1011.46 1011.56 1011.73 1011.96 1012.23 1012.51 1012.79 1013.05 1013.30 1013.54 1013.79 1014.06 1014.33 1014.59 1014.84 1015.05 1015.22 1015.37 1015.49 1015.62 1015.76 1015.93 1016.13 1016.34 1016.54 1016.72 1016.87
1007.27 1008.16 1008.85 1009.31 1009.56 1009.63 1009.58 1009.47 1009.39 1009.38 1009.49 1009.71 1010.02 1010.39 1010.76 1011.09 1011.35 1011.51 1011.61 1011.65 1011.67 1011.71 1011.79 1011.93 1012.11 1012.33 1012.56 1012.79 1013.03 1013.26 1013.50 1013.76 1014.04 1014.34 1014.64 1014.93 1015.19 1015.41 1015.57 1015.70 1015.81 1015.92 1016.06 1016.23 1016.42 1016.61 1016.80 1016.95 1017.05
1006.96 1007.65 1008.16 1008.49 1008.67 1008.76 1008.81 1008.87 1008.98 1009.19 1009.47 1009.83 1010.22 1010.61 1010.97 1011.26 1011.47 1011.62 1011.71 1011.78 1011.85 1011.95 1012.09 1012.26 1012.45 1012.66 1012.86 1013.06 1013.26 1013.47 1013.71 1013.98 1014.29 1014.62 1014.95 1015.26 1015.53 1015.74 1015.89 1016.00 1016.09 1016.18 1016.30 1016.45 1016.63 1016.81 1016.97 1017.09 1017.15
1006.60 1007.11 1007.45 1007.67 1007.82 1007.94 1008.09 1008.30 1008.59 1008.97 1009.40 1009.85 1010.29 1010.69 1011.02 1011.27 1011.46 1011.59 1011.70 1011.81 1011.94 1012.10 1012.29 1012.50 1012.71 1012.92 1013.10 1013.28 1013.46 1013.66 1013.90 1014.19 1014.52 1014.88 1015.23 1015.55 1015.82 1016.02 1016.16 1016.24 1016.31 1016.38 1016.47 1016.59 1016.74 1016.90 1017.03 1017.12 1017.15
1006.30 1006.66 1006.88 1007.02 1007.14 1007.30 1007.54 1007.88 1008.30 1008.78 1009.30 1009.80 1010.25 1010.63 1010.92 1011.14 1011.29 1011.42 1011.56 1011.71 1011.90 1012.12 1012.37 1012.62 1012.86 1013.08 1013.27 1013.44 1013.62 1013.82 1014.07 1014.37 1014.71 1015.08 1015.44 1015.77 1016.04 1016.23 1016.36 1016.42 1016.46 1016.50 1016.57 1016.66 1016.78 1016.90 1017.00 1017.06 1017.07
1006.18 1006.42 1006.56 1006.65 1006.77 1006.97 1007.27 1007.68 1008.17 1008.70 1009.23 1009.72 1010.14 1010.46 1010.71 1010.88 1011.02 1011.15 1011.31 1011.50 1011.75 1012.03 1012.32 1012.62 1012.89 1013.13 1013.34 1013.53 1013.71 1013.93 1014.18 1014.48 1014.83 1015.21 1015.57 1015.90 1016.16 1016.35 1016.47 1016.53 1016.55 1016.58 1016.61 1016.68 1016.76 1016.85 1016.92 1016.96 1016.95
1006.29 1006.47 1006.56 1006.63 1006.76 1006.98 1007.31 1007.75 1008.24 1008.76 1009.25 1009.68 1010.02 1010.28 1010.46 1010.59 1010.70 1010.84 1011.02 1011.24 1011.52 1011.84 1012.18 1012.51 1012.81 1013.08 1013.32 1013.53 1013.74 1013.96 1014.22 1014.53 1014.87 1015.23 1015.59 1015.91 1016.18 1016.37 1016.50 1016.57 1016.60 1016.62 1016.64 1016.68 1016.74 1016.80 1016.84 1016.86 1016.83
1006.66 1006.81 1006.89 1006.96 1007.10 1007.34 1007.67 1008.09 1008.54 1008.98 1009.38 1009.71 1009.96 1010.12 1010.24 1010.33 1010.43 1010.57 1010.75 1010.99 1011.29 1011.63 1011.98 1012.33 1012.65 1012.95 1013.21 1013.46 1013.69 1013.93 1014.19 1014.49 1014.81 1015.15 1015.49 1015.80 1016.07 1016.28 1016.43 1016.53 1016.59 1016.63 1016.67 1016.71 1016.75 1016.78 1016.81 1016.80 1016.76
1007.23 1007.37 1007.45 1007.55 1007.71 1007.95 1008.27 1008.63 1009.00 1009.34 1009.62 1009.82 1009.96 1010.05 1010.10 1010.17 1010.25 1010.39 1010.57 1010.81 1011.10 1011.42 1011.77 1012.11 1012.45 1012.76 1013.06 1013.33 1013.59 1013.85 1014.11 1014.38 1014.67 1014.97 1015.27 1015.57 1015.84 1016.07 1016.27 1016.42 1016.54 1016.62 1016.69 1016.74 1016.78 1016.81 1016.82 1016.81 1016.76
1007.88 1008.02 1008.13 1008.26 1008.44 1008.69 1008.97 1009.26 1009.53 1009.74 1009.89 1009.97 1010.01 1010.02 1010.05 1010.09 1010.18 1010.31 1010.50 1010.72 1010.98 1011.27 1011.58 1011.90 1012.22 1012.55 1012.87 1013.17 1013.46 1013.72 1013.98 1014.22 1014.47 1014.72 1014.98 1015.24 1015.51 1015.77 1016.01 1016.22 1016.41 1016.56 1016.67 1016.76 1016.82 1016.86 1016.87 1016.86 1016.80
1008.47 1008.62 1008.77 1008.94 1009.16 1009.41 1009.66 1009.88 1010.03 1010.11 1010.12 1010.09 1010.04 1010.01 1010.01 1010.06 1010.16 1010.31 1010.49 1010.69 1010.91 1011.15 1011.40 1011.69 1011.99 1012.32 1012.66 1012.99 1013.30 1013.58 1013.83 1014.04 1014.24 1014.43 1014.63 1014.86 1015.11 1015.38 1015.66 1015.94 1016.20 1016.42 1016.60 1016.73 1016.83 1016.89 1016.91 1016.91 1016.87
1008.87 1009.04 1009.23 1009.47 1009.73 1010.00 1010.22 1010.36 1010.40 1010.35 1010.23 1010.09 1009.97 1009.90 1009.91 1009.99 1010.13 1010.30 1010.49 1010.67 1010.85 1011.03 1011.23 1011.46 1011.75 1012.07 1012.43 1012.79 1013.13 1013.43 1013.68 1013.86 1014.01 1014.14 1014.28 1014.46 1014.68 1014.95 1015.26 1015.59 1015.90 1016.19 1016.43 1016.61 1016.75 1016.84 1016.90 1016.92 1016.91
1008.98 1009.18 1009.44 1009.76 1010.09 1010.38 1010.58 1010.65 1010.58 1010.39 1010.15 1009.90 1009.71 1009.63 1009.65 1009.78 1009.97 1010.19 1010.41 1010.59 1010.74 1010.87 1011.02 1011.21 1011.46 1011.79 1012.17 1012.56 1012.95 1013.28 1013.53 1013.71 1013.82 1013.90 1013.98 1014.10 1014.28 1014.53 1014.84 1015.19 1015.54 1015.87 1016.16 1016.39 1016.57 1016.70 1016.79 1016.85 1016.87
1008.76 1009.02 1009.38 1009.81 1010.22 1010.55 1010.73 1010.72 1010.54 1010.21 1009.83 1009.47 1009.22 1009.11 1009.16 1009.34 1009.61 1009.90 1010.16 1010.37 1010.51 1010.62 1010.73 1010.89 1011.13 1011.46 1011.86 1012.30 1012.73 1013.10 1013.39 1013.57 1013.66 1013.71 1013.74 1013.81 1013.94 1014.16 1014.45 1014.79 1015.15 1015.50 1015.81 1016.06 1016.27 1016.43 1016.56 1016.67 1016.74
1008.25 1008.61 1009.11 1009.66 1010.18 1010.55 1010.71 1010.62 1010.30 1009.82 1009.29 1008.81 1008.47 1008.34 1008.41 1008.66 1009.01 1009.38 1009.72 1009.98 1010.15 1010.26 1010.36 1010.50 1010.74 1011.08 1011.51 1011.99 1012.48 1012.90 1013.23 1013.44 1013.55 1013.58 1013.58 1013.60 1013.69 1013.86 1014.11 1014.43 1014.77 1015.10 1015.41 1015.67 1015.89 1016.07 1016.23 1016.37 1016.50
1007.57 1008.07 1008.72 1009.42 1010.03 1010.45 1010.58 1010.39 1009.93 1009.28 1008.58 1007.96 1007.53 1007.36 1007.45 1007.75 1008.19 1008.67 1009.10 1009.44 1009.66 1009.81 1009.92 1010.07 1010.31 1010.66 1011.12 1011.64 1012.18 1012.66 1013.05 1013.30 1013.43 1013.47 1013.47 1013.47 1013.52 1013.65 1013.85 1014.12 1014.41 1014.71 1014.99 1015.23 1015.44 1015.63 1015.81 1015.98 1016.15
1006.89 1007.53 1008.34 1009.17 1009.88 1010.32 1010.40 1010.11 1009.49 1008.66 1007.78 1007.02 1006.49 1006.26 1006.36 1006.71 1007.24 1007.83 1008.37 1008.81 1009.12 1009.32 1009.47 1009.64 1009.89 1010.25 1010.72 1011.27 1011.84 1012.37 1012.81 1013.11 1013.28 1013.35 1013.36 1013.36 1013.39 1013.48 1013.64 1013.86 1014.10 1014.35 1014.59 1014.80 1014.98 1015.16 1015.34 1015.53 1015.72
1006.36 1007.13 1008.07 1009.00 1009.77 1010.20 1010.22 1009.81 1009.03 1008.03 1006.99 1006.08 1005.45 1005.17 1005.26 1005.66 1006.28 1006.97 1007.63 1008.18 1008.58 1008.86 1009.06 1009.26 1009.52 1009.88 1010.34 1010.90 1011.48 1012.03 1012.50 1012.84 1013.06 1013.16 1013.20 1013.21 1013.24 1013.31 1013.44 1013.62 1013.82 1014.02 1014.21 1014.38 1014.53 1014.68 1014.85 1015.03 1015.24
1006.07 1006.93 1007.94 1008.92 1009.69 1010.08 1010.01 1009.48 1008.56 1007.41 1006.23 1005.21 1004.50 1004.18 1004.28 1004.72 1005.40 1006.19 1006.96 1007.62 1008.12 1008.47 1008.73 1008.96 1009.22 1009.57 1010.02 1010.55 1011.11 1011.66 1012.13 1012.49 1012.73 1012.87 1012.94 1012.97 1013.02 1013.09 1013.21 1013.36 1013.53 1013.70 1013.86 1013.99 1014.11 1014.23 1014.37 1014.54 1014.74
1006.06 1006.93 1007.93 1008.88 1009.58 1009.89 1009.72 1009.07 1008.05 1006.80 1005.54 1004.46 1003.70 1003.37 1003.48 1003.95 1004.69 1005.56 1006.41 1007.15 1007.74 1008.17 1008.48 1008.74 1009.01 1009.34 1009.75 1010.23 1010.75 1011.26 1011.70 1012.06 1012.30 1012.46 1012.55 1012.62 1012.69 1012.78 1012.91 1013.06 1013.22 1013.38 1013.51 1013.63 1013.72 1013.82 1013.93 1014.07 1014.24
1006.26 1007.04 1007.94 1008.76 1009.33 1009.52 1009.24 1008.51 1007.43 1006.16 1004.89 1003.81 1003.07 1002.76 1002.89 1003.39 1004.16 1005.07 1005.97 1006.77 1007.42 1007.91 1008.28 1008.57 1008.84 1009.16 1009.53 1009.96 1010.41 1010.85 1011.25 1011.56 1011.80 1011.95 1012.06 1012.15 1012.25 1012.37 1012.53 1012.70 1012.88 1013.05 1013.19 1013.30 1013.39 1013.46 1013.55 1013.66 1013.79
1006.54 1007.14 1007.83 1008.45 1008.83 1008.86 1008.48 1007.71 1006.64 1005.42 1004.22 1003.23 1002.57 1002.32 1002.48 1002.99 1003.77 1004.67 1005.58 1006.40 1007.08 1007.62 1008.02 1008.35 1008.65 1008.96 1009.31 1009.69 1010.09 1010.46 1010.79 1011.06 1011.26 1011.40 1011.51 1011.62 1011.74 1011.90 1012.10 1012.31 1012.53 1012.73 1012.89 1013.02 1013.11 1013.18 1013.25 1013.32 1013.41
1006.74 1007.07 1007.47 1007.81 1007.96 1007.83 1007.37 1006.61 1005.62 1004.53 1003.50 1002.67 1002.14 1001.97 1002.17 1002.68 1003.42 1004.27 1005.14 1005.93 1006.61 1007.17 1007.62 1007.99 1008.34 1008.68 1009.04 1009.41 1009.77 1010.10 1010.38 1010.59 1010.75 1010.87 1010.97 1011.09 1011.24 1011.44 1011.67 1011.94 1012.20 1012.44 1012.64 1012.80 1012.90 1012.98 1013.03 1013.07 1013.12
1006.70 1006.71 1006.78 1006.81 1006.71 1006.42 1005.91 1005.21 1004.37 1003.49 1002.68 1002.06 1001.70 1001.64 1001.88 1002.36 1003.03 1003.78 1004.55 1005.28 1005.92 1006.49 1006.98 1007.42 1007.84 1008.26 1008.68 1009.08 1009.45 1009.77 1010.02 1010.20 1010.33 1010.43 1010.52 1010.65 1010.82 1011.05 1011.33 1011.63 1011.94 1012.23 1012.47 1012.66 1012.78 1012.86 1012.90 1012.92 1012.92
Thickness
5829 5826 5821 5808 5787 5768 5765 5777 5787 5786 5786 5793 5796 5789 5778 5771 5761 5751 5772 5779 5778 5776 5774 5773 5773 5773 5772 5771 5771 5770 5770 5769 5769 5768 5768 5767 5767 5767 5767 5766 5766 5765 5764 5764 5764 5764 5764 5763 5760
5831 5827 5816 5799 5773 5753 5763 5783 5786 5790 5794 5798 5796 5789 5780 5774 5779 5774 5775 5778 5778 5776 5774 5773 5772 5772 5771 5770 5770 5769 5769 5768 5768 5767 5766 5766 5766 5766 5765 5765 5764 5764 5763 5763 5762 5762 5762 5760 5758
5835 5830 5809 5790 5773 5763 5770 5788 5793 5800 5805 5802 5793 5791 5782 5776 5780 5778 5780 5780 5778 5775 5774 5773 5772 5772 5771 5770 5769 5768 5768 5767 5767 5766 5765 5765 5765 5765 5764 5764 5764 5763 5762 5762 5761 5761 5760 5759 5757
5834 5819 5806 5786 5778 5791 5794 5798 5804 5800 5801 5803 5795 5783 5785 5790 5788 5785 5783 5781 5777 5775 5774 5773 5773 5772 5771 5770 5769 5767 5766 5766 5765 5764 5764 5764 5764 5763 5763 5763 5763 5762 5761 5761 5760 5759 5759 5758 5757
5833 5811 5790 5779 5788 5803 5810 5813 5811 5801 5797 5797 5794 5779 5777 5790 5792 5788 5784 5781 5778 5775 5775 5774 5773 5772 5771 5769 5768 5767 5766 5765 5764 5763 5763 5763 5763 5763 5763 5763 5762 5761 5760 5760 5759 5758 5758 5757 5756
5820 5806 5782 5776 5791 5807 5814 5818 5813 5801 5796 5795 5791 5780 5776 5789 5788 5786 5785 5782 5780 5777 5775 5774 5773 5772 5770 5769 5768 5766 5765 5764 5763 5763 5763 5763 5763 5763 5763 5762 5761 5761 5760 5759 5759 5758 5757 5756 5756
5816 5800 5787 5790 5794 5801 5813 5822 5814 5803 5797 5797 5798 5780 5777 5784 5789 5789 5786 5783 5780 5778 5776 5775 5773 5772 5770 5769 5767 5766 5765 5764 5763 5763 5763 5763 5763 5763 5763 5762 5761 5760 5759 5759 5759 5758 5757 5756 5755
5832 5808 5795 5796 5796 5801 5819 5825 5822 5813 5805 5811 5806 5785 5777 5787 5793 5790 5786 5783 5780 5778 5777 5775 5774 5773 5771 5769 5767 5766 5765 5764 5763 5763 5763 5763 5763 5763 5763 5762 5761 5760 5759 5759 5758 5757 5757 5756 5756
5842 5804 5791 5801 5804 5809 5824 5821 5822 5826 5816 5812 5812 5804 5800 5800 5796 5788 5782 5779 5777 5776 5776 5775 5774 5772 5771 5769 5768 5766 5765 5764 5763 5763 5762 5762 5762 5762 5762 5761 5761 5760 5759 5758 5758 5757 5757 5756 5756
5833 5803 5811 5829 5830 5826 5829 5825 5823 5815 5806 5804 5804 5806 5805 5801 5794 5787 5781 5778 5776 5775 5776 5776 5775 5773 5772 5771 5769 5767 5766 5764 5763 5762 5761 5761 5761 5761 5760 5760 5759 5759 5758 5757 5757 5757 5757 5756 5756
5841 5826 5836 5842 5846 5842 5832 5828 5830 5814 5800 5804 5803 5802 5803 5799 5794 5789 5786 5783 5781 5780 5779 5778 5776 5775 5773 5772 5770 5768 5766 5764 5763 5762 5761 5760 5760 5759 5759 5759 5758 5758 5758 5757 5757 5756 5756 5756 5756
5845 5847 5850 5846 5850 5843 5835 5831 5825 5819 5816 5823 5820 5815 5807 5800 5796 5793 5790 5788 5786 5783 5782 5780 5779 5776 5775 5773 5771 5769 5767 5765 5763 5762 5761 5760 5759 5759 5758 5758 5758 5758 5757 5757 5756 5756 5755 5756 5756
5845 5847 5853 5854 5850 5846 5842 5833 5828 5823 5828 5828 5823 5815 5809 5804 5800 5799 5798 5794 5791 5786 5785 5783 5782 5779 5777 5775 5773 5771 5768 5767 5765 5763 5762 5761 5760 5759 5758 5758 5758 5758 5757 5756 5755 5755 5755 5755 5755
5849 5849 5849 5850 5847 5846 5836 5831 5827 5822 5830 5824 5819 5813 5811 5808 5804 5801 5798 5795 5793 5791 5788 5787 5784 5782 5779 5777 5774 5772 5770 5768 5766 5764 5763 5762 5761 5760 5759 5758 5758 5758 5757 5756 5755 5754 5754 5754 5754
5855 5841 5838 5842 5842 5839 5833 5815 5820 5829 5829 5820 5817 5815 5813 5811 5809 5805 5803 5800 5798 5795 5792 5790 5787 5784 5781 5779 5776 5774 5772 5770 5767 5766 5764 5763 5762 5761 5760 5759 5758 5757 5757 5756 5754 5753 5752 5752 5752
5841 5824 5811 5830 5839 5837 5820 5796 5819 5831 5826 5817 5817 5816 5814 5812 5813 5811 5809 5805 5802 5798 5794 5792 5791 5786 5783 5781 5778 5776 5773 5771 5769 5767 5765 5764 5763 5762 5760 5759 5758 5757 5756 5755 5753 5751 5749 5749 5748
5816 5803 5805 5820 5839 5835 5817 5801 5819 5828 5825 5818 5818 5817 5815 5812 5813 5814 5813 5809 5806 5802 5798 5794 5792 5788 5785 5783 5780 5778 5775 5772 5770 5768 5766 5765 5763 5762 5761 5759 5758 5757 5755 5754 5753 5750 5748 5746 5745
5800 5803 5809 5814 5831 5829 5814 5810 5821 5827 5825 5820 5820 5819 5816 5814 5815 5818 5816 5813 5809 5805 5801 5797 5793 5790 5787 5784 5780 5777 5775 5773 5771 5769 5767 5766 5764 5763 5761 5759 5758 5757 5755 5753 5751 5749 5747 5745 5744
5819 5813 5809 5820 5837 5826 5816 5814 5820 5827 5824 5820 5818 5818 5817 5818 5821 5821 5819 5816 5811 5806 5801 5798 5794 5791 5788 5783 5779 5775 5772 5771 5770 5769 5768 5766 5764 5763 5762 5760 5758 5756 5754 5752 5751 5749 5745 5743 5744
5820 5810 5810 5822 5836 5826 5814 5813 5823 5827 5827 5827 5825 5823 5821 5818 5818 5819 5818 5816 5812 5808 5804 5799 5796 5793 5790 5787 5783 5779 5776 5773 5772 5770 5769 5767 5765 5763 5762 5759 5757 5756 5754 5752 5750 5748 5743 5742 5743
5815 5811 5813 5813 5824 5824 5811 5798 5809 5822 5828 5829 5830 5830 5827 5824 5820 5819 5818 5816 5813 5809 5806 5803 5799 5796 5793 5789 5785 5780 5776 5773 5770 5768 5767 5767 5766 5764 5762 5760 5758 5756 5754 5751 5750 5748 5744 5740 5740
5806 5827 5826 5820 5804 5791 5800 5771 5796 5812 5816 5822 5825 5826 5827 5828 5826 5823 5821 5817 5815 5813 5810 5806 5801 5797 5794 5791 5785 5779 5773 5769 5769 5769 5768 5767 5766 5764 5762 5761 5759 5756 5754 5752 5750 5749 5746 5742 5738
5821 5835 5827 5818 5800 5786 5791 5775 5783 5804 5803 5815 5823 5827 5829 5831 5829 5826 5825 5821 5818 5815 5811 5807 5802 5798 5795 5792 5788 5782 5777 5774 5772 5770 5767 5765 5765 5764 5762 5760 5758 5756 5754 5752 5750 5749 5747 5744 5740
5834 5824 5813 5799 5782 5764 5782 5776 5773 5795 5810 5820 5827 5831 5832 5832 5830 5827 5827 5823 5818 5815 5811 5807 5801 5797 5795 5792 5788 5783 5778 5774 5770 5768 5765 5764 5763 5762 5761 5760 5758 5756 5753 5752 5750 5749 5746 5744 5742
5820 5789 5761 5755 5746 5755 5784 5777 5781 5814 5828 5831 5831 5833 5834 5833 5829 5825 5822 5819 5816 5813 5811 5807 5802 5796 5794 5791 5787 5784 5780 5776 5771 5768 5765 5763 5761 5760 5760 5759 5757 5755 5754 5752 5750 5748 5746 5744 5742
5808 5789 5756 5741 5739 5753 5776 5773 5795 5825 5834 5836 5835 5834 5833 5830 5830 5826 5824 5821 5817 5814 5810 5806 5801 5796 5793 5790 5786 5784 5780 5776 5772 5769 5767 5764 5762 5761 5761 5759 5757 5755 5753 5752 5750 5747 5746 5744 5742
5802 5790 5790 5765 5758 5749 5758 5779 5800 5821 5823 5826 5827 5826 5824 5827 5827 5826 5823 5820 5817 5813 5810 5806 5800 5796 5793 5790 5786 5782 5779 5775 5772 5769 5767 5764 5763 5762 5760 5758 5756 5755 5753 5751 5748 5746 5744 5743 5741
5815 5803 5775 5757 5740 5734 5750 5764 5773 5794 5803 5812 5815 5816 5819 5823 5822 5820 5819 5818 5815 5812 5809 5805 5800 5795 5792 5789 5785 5781 5777 5775 5771 5768 5765 5763 5761 5760 5758 5756 5755 5752 5751 5749 5746 5744 5743 5741 5739
5798 5792 5774 5756 5752 5736 5731 5752 5797 5799 5803 5805 5808 5813 5814 5815 5816 5815 5814 5813 5810 5807 5804 5799 5796 5792 5788 5785 5782 5779 5776 5773 5769 5765 5763 5762 5759 5757 5756 5754 5752 5750 5748 5746 5743 5741 5740 5738 5736
5801 5791 5774 5753 5746 5743 5737 5752 5805 5805 5806 5805 5805 5808 5810 5810 5810 5810 5809 5806 5803 5800 5798 5795 5792 5789 5786 5782 5779 5776 5773 5770 5766 5763 5761 5761 5758 5756 5754 5751 5749 5747 5745 5743 5740 5738 5737 5734 5733